Regional Weather Roundup
Issued by NWS Boston, MA

Current Version | Previous Version | Text Only | Print | Product List | Glossary Off
Versions: 1 2 3 4 5 6 7 8 9 10 11 12 13 14 15 16 17 18 19 20 21 22 23 24 25 26 27 28 29 30 31 32 33 34 35 36 37 38 39 40 41 42 43 44 45 46 47 48 49 50
000 ASUS41 KBOX 200410 RWRBOX REGIONAL WEATHER ROUNDUP NATIONAL WEATHER SERVICE BOSTON/NORTON MA 1200 AM EDT MON AUG 20 2018 NOTE: "FAIR" INDICATES FEW OR NO CLOUDS BELOW 12,000 FEET WITH NO SIGNIFICANT WEATHER AND/OR OBSTRUCTIONS TO VISIBILITY. MAZALL-200500- EASTERN MASSACHUSETTS CITY SKY/WX TMP DP RH WIND PRES REMARKS BOSTON CLOUDY 68 65 90 NE14 30.10S BEVERLY LGT RAIN 66 64 93 NE7 30.10S FOG LAWRENCE MOCLDY 67 59 75 N7 30.14R BEDFORD LGT RAIN 65 60 84 N6 30.10S BLUE HILL N/A 63 63 100 NE13G23 30.10S NORWOOD CLOUDY 68 66 93 NE5 30.09S MARSHFIELD CLOUDY 68 66 94 NE13 30.08F PLYMOUTH LGT RAIN 67 65 93 NE9 30.08S TAUNTON CLOUDY 67 65 93 VRB3 30.07F FOG NEW BEDFORD LGT RAIN 66 66 100 NE5 30.06F FOG $$ MAZALL-200500- CAPE COD AND THE ISLANDS CITY SKY/WX TMP DP RH WIND PRES REMARKS FALMOUTH CLOUDY 66 66 100 NE12G17 30.07S FOG HYANNIS LGT RAIN 67 66 97 NE9 30.04S FOG CHATHAM CLOUDY 66 66 100 NE10 30.06S FOG PROVINCETOWN CLOUDY 65 63 93 E8 30.08R NANTUCKET CLOUDY 66 66 100 NE8 30.03S FOG MARTHAS VNYRD LGT RAIN 67 67 100 NE8 30.05S $$ MAZALL-200500- CENTRAL AND WESTERN MASSACHUSETTS CITY SKY/WX TMP DP RH WIND PRES REMARKS WORCESTER CLOUDY 61 58 90 N6 30.14R FITCHBURG CLOUDY 62 59 90 NW7 30.14S ORANGE FAIR 61 58 90 NE3 30.15S SPRINGFIELD FAIR 63 58 83 N7 30.12S WESTFIELD FAIR 63 59 87 N5 30.13S NORTH ADAMS FAIR 62 57 83 CALM 30.15R PITTSFIELD FAIR 62 55 77 CALM 30.15R $$ RIZALL-200500- RHODE ISLAND CITY SKY/WX TMP DP RH WIND PRES REMARKS PROVIDENCE CLOUDY 67 62 84 NE10 30.09S NEWPORT CLOUDY 66 64 93 NE8 30.08R BLOCK ISLAND CLOUDY 67 64 90 NE12 30.08R SMITHFIELD LGT RAIN 64 63 94 NE9 30.11R FOG WESTERLY CLOUDY 67 63 87 N6 30.09R $$ CTZALL-200500- CONNECTICUT CITY SKY/WX TMP DP RH WIND PRES REMARKS BRADLEY INTL MOCLDY 65 59 81 N3 30.13R HARTFORD MOCLDY 67 59 75 N9 30.12R BRIDGEPORT FAIR 68 58 70 NE9 30.10R DANBURY CLOUDY 66 61 84 NE3 30.13R GROTON CLOUDY 67 60 78 N8 30.08R NEW HAVEN FAIR 67 59 75 NE10 30.10S CHESTER CLOUDY 66 59 77 N6 30.11R MERIDEN CLOUDY 67 58 72 NE7 30.11R WILLIMANTIC MOCLDY 63 61 93 N5 30.11R OXFORD CLOUDY 65 58 78 E6 30.13R $$ MEZ002-015-021-024-NHZ003-005-008-011-012-014-VTZ005-008-200500- NORTHERN NEW ENGLAND CITY SKY/WX TMP DP RH WIND PRES REMARKS PORTLAND ME FAIR 62 60 93 N6 30.15R BANGOR ME MOCLDY 61 58 90 CALM 30.17R CONCORD NH CLOUDY 61 59 93 CALM 30.15S MANCHESTER NH CLOUDY 67 59 75 N7 30.12S NASHUA NH MOCLDY 62 61 96 NW5 30.14R PORTSMOUTH NH MOCLDY 64 59 82 NE5 30.12 JAFFREY NH FAIR 60 59 96 CALM 30.16F KEENE NH FAIR N/A N/A N/A CALM 30.15S BURLINGTON VT FAIR 65 60 84 CALM 30.10S MT. WASHINGTON PTCLDY 43 42 98 E8 N/A $$ NYZ052-076-200500- EASTERN NEW YORK CITY SKY/WX TMP DP RH WIND PRES REMARKS ALBANY MOCLDY 71 55 56 S8 30.12R NEW YORK CITY CLOUDY 72 58 61 E12 30.08S $$ ANZALL-200500- MARINE OBSERVATIONS STATION/POSITION TIME TEMP WIND PRES VSBY WAVE AIR SEA DIR/SP/G HT/PER (UTC) (F) (DEG/KT/KT) (MB) (MI) (FT/S) BOSTON BUOY 0350 67 68 40/ 12/ 14 1018.4R 5/ 7 BUZZARDS BAY 0300 66 20/ 13/ 15 1018.3R NANTUCKET SOUND 0350 68 74 50/ 17/ 21 1017.0F 2/ 3 MASS BAY-STELLWA 0304 66 67 50/ 14/ 16 1017.4S 1 7/8 5/ 6 ISLE OF SHOALS 0300 66 70/ 15/ 18 1019.1F S OF BLOCK IS 0343 74 N/A 4/ 4 $$ ......................KEY......................... SKY/WX - SKY CONDITION/PRESENT WEATHER TMP - TEMPERATURE IN FAHRENHEIT DWPT - DEWPOINT IN FAHRENHEIT RH - RELATIVE HUMIDITY IN PERCENT WIND - DIRECTION AND SPEED IN MPH PRES - MEAN SEA LEVEL PRESSURE IN INCHES OF HG WCI - WIND CHILL INDEX VSB - VISIBILITY IN MILES HX - HEAT INDEX TC - TEMPERATURE IN CELSIUS VRB - VARIABLE WIND DIRECTION N/A - NOT AVAILABLE

USA.gov is the U.S. government's official web portal to all federal, state and local government web resources and services.